GW0401 Weather Reports


Display with metric or nautical units.
time (UTC)temp
F
wind
direction
speed
MPH
gust
MPH
rain 1hr
in
rain 24hr
in
rain mn
in
humidity
%
barometer
mb
20260506102337 50 55 14.0 18.0 0.00 0.00 0.00 68 1008.6
20260506101838 51 58 11.0 17.0 0.00 0.00 0.00 69 1008.5
20260506101337 51 56 10.0 16.0 0.00 0.00 0.00 70 1008.4
20260506100838 50 37 13.0 19.0 0.00 0.00 0.00 68 1008.5
20260506095836 51 62 12.0 17.0 0.00 0.00 0.00 68 1008.4
20260506095336 51 55 13.0 20.0 0.00 0.00 0.00 67 1008.4
20260506094337 51 49 15.0 18.0 0.00 0.00 0.00 67 1008.4
20260506093840 51 45 14.0 19.0 0.00 0.00 0.00 67 1008.3
20260506093335 51 46 13.0 19.0 0.00 0.00 0.00 68 1008.3
20260506092836 51 52 9.0 14.0 0.00 0.00 0.00 70 1008.2
20260506091835 51 44 11.0 18.0 0.00 0.00 0.00 68 1008.3
20260506091335 51 39 11.0 17.0 0.00 0.00 0.00 70 1008.1
20260506090847 51 42 13.0 17.0 0.00 0.00 0.00 69 1008.1
20260506090333 51 54 10.0 17.0 0.00 0.00 0.00 69 1008.1
20260506085832 51 35 12.0 17.0 0.00 0.00 0.00 70 1008.1
20260506084832 51 52 11.0 20.0 0.00 0.00 0.00 71 1008.1
20260506083832 51 42 9.0 17.0 0.00 0.00 0.00 73 1008.0
20260506083332 51 37 12.0 17.0 0.00 0.00 0.00 72 1008.0
20260506082832 51 44 10.0 17.0 0.00 0.00 0.00 73 1007.8
20260506081832 51 31 11.0 17.0 0.00 0.00 0.00 73 1007.9
20260506081332 51 52 12.0 17.0 0.00 0.00 0.00 74 1007.9
20260506080831 50 44 11.0 16.0 0.00 0.00 0.00 74 1007.8
20260506080330 50 54 12.0 16.0 0.00 0.00 0.00 74 1007.8
20260506073330 50 41 11.0 17.0 0.00 0.00 0.00 79 1007.7
20260506072831 50 31 10.0 16.0 0.00 0.00 0.00 79 1007.7
20260506072330 50 48 12.0 16.0 0.00 0.00 0.00 78 1007.7
20260506070831 50 35 11.0 16.0 0.00 0.00 0.00 77 1007.6
20260506070330 50 37 12.0 19.0 0.00 0.00 0.00 77 1007.6
20260506062328 49 28 9.0 14.0 0.00 0.00 0.00 77 1007.6
20260506061828 49 35 9.0 12.0 0.00 0.00 0.00 77 1007.4
20260506061328 49 28 9.0 12.0 0.00 0.00 0.00 77 1007.5
20260506060830 49 27 9.0 13.0 0.00 0.00 0.00 77 1007.4
20260506060330 49 24 9.0 13.0 0.00 0.00 0.00 77 1007.5
20260506051323 49 41 6.0 9.0 0.00 0.00 0.00 81 1007.4
20260506050822 49 46 7.0 12.0 0.00 0.00 0.00 81 1007.4
20260506043819 49 31 8.0 12.0 0.00 0.00 0.00 80 1007.3
20260506043320 49 28 9.0 12.0 0.00 0.00 0.00 80 1007.3
20260506042317 49 32 10.0 14.0 0.00 0.00 0.00 80 1007.2
20260506041817 49 24 11.0 14.0 0.00 0.00 0.00 81 1007.2
20260506041317 49 31 10.0 13.0 0.00 0.00 0.00 81 1007.2
20260506040320 49 25 10.0 15.0 0.00 0.00 0.00 82 1007.3
20260506035816 49 30 10.0 15.0 0.00 0.00 0.00 82 1007.2
20260506035318 49 28 10.0 15.0 0.00 0.00 0.00 82 1007.1
20260506034819 49 28 11.0 15.0 0.00 0.00 0.00 82 1007.1
20260506034318 49 13 12.0 15.0 0.00 0.00 0.00 83 1007.2
20260506033817 49 27 9.0 15.0 0.00 0.00 0.00 83 1007.3
20260506033320 49 28 11.0 15.0 0.00 0.00 0.00 84 1007.3
20260506032816 49 23 11.0 15.0 0.00 0.00 0.00 84 1007.3
20260506032315 49 24 11.0 16.0 0.00 0.00 0.00 84 1007.5
20260506031818 49 8 11.0 16.0 0.00 0.00 0.00 84 1007.5
20260506031316 49 21 12.0 15.0 0.00 0.00 0.00 84 1007.5
20260506030817 49 27 9.0 13.0 0.00 0.00 0.00 84 1007.5
20260506030315 49 14 10.0 13.0 0.00 0.00 0.00 85 1007.5
20260506025315 49 23 10.0 13.0 0.00 0.00 0.00 84 1007.6
20260506023818 49 15 9.0 13.0 0.00 0.00 0.00 85 1007.6
20260506022814 49 18 9.0 12.0 0.00 0.00 0.00 84 1007.6
20260506022314 49 25 10.0 13.0 0.00 0.00 0.00 84 1007.6
20260506021815 49 25 9.0 13.0 0.00 0.00 0.00 84 1007.7
20260506021314 49 30 9.0 11.0 0.00 0.00 0.00 84 1007.8
20260506020815 49 21 9.0 12.0 0.00 0.00 0.00 84 1007.7
20260506015816 49 15 8.0 11.0 0.00 0.00 0.00 84 1007.9
20260506014815 49 15 8.0 11.0 0.00 0.00 0.00 83 1008.0
20260506014314 49 10 8.0 12.0 0.00 0.00 0.00 83 1008.0
20260506013814 49 14 9.0 12.0 0.00 0.00 0.00 83 1008.1
20260506012813 49 20 9.0 12.0 0.00 0.00 0.00 83 1008.1
20260506012313 49 14 9.0 12.0 0.00 0.00 0.00 83 1008.1
20260506011814 49 8 8.0 13.0 0.00 0.00 0.00 83 1008.1
20260506011314 49 24 10.0 13.0 0.00 0.00 0.00 83 1008.1
20260506010814 49 7 8.0 12.0 0.00 0.00 0.00 83 1008.1
20260506010314 49 10 9.0 12.0 0.00 0.00 0.00 83 1008.2
20260506005312 49 14 9.0 11.0 0.00 0.00 0.00 82 1008.2
20260506004813 49 11 8.0 11.0 0.00 0.00 0.00 82 1008.3
20260506004312 49 11 7.0 11.0 0.00 0.00 0.00 82 1008.3
20260506003812 49 14 8.0 11.0 0.00 0.00 0.00 82 1008.4
20260506003315 49 11 7.0 12.0 0.00 0.00 0.00 82 1008.4
20260506002814 49 17 9.0 12.0 0.00 0.00 0.00 82 1008.4
20260506002317 49 28 8.0 12.0 0.00 0.00 0.00 82 1008.6
20260506000813 49 32 9.0 13.0 0.00 0.00 0.00 81 1008.6
20260506000312 49 24 9.0 13.0 0.00 0.00 0.00 81 1008.7
20260505235811 49 31 8.0 11.0 0.00 0.00 0.00 81 1008.7
20260505235311 49 30 7.0 12.0 0.00 0.00 0.00 81 1008.8
20260505234808 49 18 6.0 12.0 0.00 0.00 0.00 81 1008.8
20260505234310 49 14 9.0 12.0 0.00 0.00 0.00 81 1008.9
20260505233309 49 25 9.0 14.0 0.00 0.00 0.00 81 1008.9
20260505232810 49 24 9.0 13.0 0.00 0.00 0.00 80 1008.9
20260505232310 49 30 10.0 13.0 0.00 0.00 0.00 80 1009.0
20260505231809 49 21 11.0 13.0 0.00 0.00 0.00 80 1009.0
20260505230809 49 28 10.0 16.0 0.00 0.00 0.00 80 1009.0
20260505230308 49 21 10.0 14.0 0.00 0.00 0.00 80 1009.0
20260505225310 49 27 8.0 13.0 0.00 0.00 0.00 80 1009.0
20260505224808 49 25 10.0 17.0 0.00 0.00 0.00 80 1009.0
20260505224307 49 24 10.0 17.0 0.00 0.00 0.00 80 1009.1
20260505223812 49 17 8.0 15.0 0.00 0.00 0.00 80 1009.1
20260505223308 49 30 11.0 14.0 0.00 0.00 0.00 80 1009.2
20260505222810 49 17 11.0 17.0 0.00 0.00 0.00 80 1009.2
20260505222307 49 21 11.0 17.0 0.00 0.00 0.00 81 1009.2
20260505221808 49 32 10.0 14.0 0.00 0.00 0.00 81 1009.2
20260505221308 49 8 10.0 17.0 0.00 0.00 0.00 81 1009.2
20260505220809 49 14 11.0 17.0 0.00 0.00 0.00 80 1009.3
20260505220307 49 44 11.0 15.0 0.00 0.00 0.00 81 1009.3
20260505215809 49 21 11.0 16.0 0.00 0.00 0.00 81 1009.3
20260505215308 49 31 11.0 16.0 0.00 0.00 0.00 81 1009.3
20260505214806 49 18 12.0 14.0 0.00 0.00 0.00 81 1009.4
20260505214306 49 20 9.0 15.0 0.00 0.00 0.00 81 1009.4
20260505213807 49 17 10.0 15.0 0.00 0.00 0.00 81 1009.4
20260505213306 49 31 10.0 14.0 0.00 0.00 0.00 81 1009.5
20260505212809 49 10 10.0 14.0 0.00 0.00 0.00 81 1009.5
20260505212308 49 23 11.0 14.0 0.00 0.00 0.00 81 1009.5
20260505211306 49 27 11.0 15.0 0.00 0.00 0.00 81 1009.5
20260505210306 49 18 11.0 16.0 0.00 0.00 0.00 81 1009.6
20260505205306 49 28 13.0 16.0 0.00 0.01 0.00 81 1009.6
20260505204808 49 27 13.0 17.0 0.00 0.01 0.00 81 1009.7
20260505204307 49 15 10.0 17.0 0.00 0.01 0.00 81 1009.7
20260505203806 49 27 12.0 16.0 0.00 0.01 0.00 81 1009.8
20260505203312 49 18 11.0 14.0 0.00 0.01 0.00 81 1009.8
20260505202804 49 25 10.0 15.0 0.00 0.01 0.00 81 1009.8
20260505202310 49 21 12.0 15.0 0.00 0.01 0.00 81 1009.8
20260505201807 49 15 10.0 15.0 0.00 0.01 0.00 81 1009.9
20260505200804 49 20 11.0 14.0 0.00 0.01 0.00 81 1009.9
20260505200308 49 28 8.0 15.0 0.00 0.01 0.00 81 1009.8
20260505195804 50 27 9.0 15.0 0.00 0.01 0.00 81 1009.9
20260505195305 50 38 9.0 14.0 0.00 0.01 0.00 81 1009.8
20260505194803 50 24 9.0 14.0 0.00 0.01 0.00 81 1009.8
20260505194305 50 25 9.0 14.0 0.00 0.01 0.00 81 1009.8
20260505193802 50 30 11.0 14.0 0.00 0.01 0.00 81 1009.9
20260505193304 50 20 11.0 14.0 0.00 0.01 0.00 81 1009.8
20260505192803 50 28 10.0 16.0 0.00 0.01 0.00 81 1009.7
20260505192306 50 20 10.0 18.0 0.00 0.01 0.00 81 1009.6
20260505191805 50 20 11.0 18.0 0.00 0.01 0.00 81 1009.6
20260505191304 50 15 9.0 17.0 0.00 0.01 0.00 81 1009.6
20260505185803 50 37 15.0 21.0 0.00 0.01 0.00 81 1009.4
20260505185306 51 17 15.0 18.0 0.00 0.01 0.00 81 1009.3
20260505184803 51 31 12.0 18.0 0.00 0.01 0.00 81 1009.3
20260505184302 51 10 9.0 18.0 0.00 0.01 0.00 81 1009.3
20260505183809 51 23 14.0 18.0 0.00 0.01 0.00 81 1009.2
20260505181802 51 6 14.0 18.0 0.00 0.01 0.00 80 1009.3
20260505181303 51 18 11.0 16.0 0.00 0.01 0.00 80 1009.4
20260505175757 52 15 11.0 18.0 0.00 0.01 0.00 80 1009.4
20260505174757 52 13 15.0 20.0 0.00 0.01 0.00 79 1009.4
20260505173755 52 14 12.0 18.0 0.00 0.01 0.00 79 1009.3
20260505173257 52 28 15.0 20.0 0.00 0.01 0.00 78 1009.3
20260505171754 53 14 13.0 18.0 0.00 0.01 0.00 77 1009.4
20260505171257 53 11 14.0 18.0 0.00 0.01 0.00 76 1009.4
20260505170755 53 14 11.0 17.0 0.00 0.01 0.00 76 1009.4
20260505170253 53 23 11.0 15.0 0.00 0.01 0.00 76 1009.5
20260505165753 53 18 9.0 16.0 0.00 0.01 0.00 75 1009.5
20260505165254 53 20 12.0 16.0 0.00 0.01 0.00 76 1009.5
20260505164755 53 21 12.0 16.0 0.00 0.01 0.00 75 1009.5
20260505164251 53 7 11.0 17.0 0.00 0.01 0.00 76 1009.6
20260505163752 53 13 14.0 17.0 0.00 0.01 0.00 75 1009.5
20260505163258 53 27 12.0 17.0 0.00 0.01 0.00 76 1009.6
20260505162752 53 11 12.0 18.0 0.00 0.01 0.00 76 1009.5
20260505161753 53 20 12.0 19.0 0.00 0.01 0.00 76 1009.6
20260505161253 53 17 14.0 20.0 0.00 0.01 0.00 76 1009.6
20260505160750 53 6 15.0 20.0 0.00 0.01 0.00 76 1009.6
20260505160252 53 13 13.0 20.0 0.00 0.01 0.00 77 1009.7
20260505153250 53 24 15.0 19.0 0.00 0.01 0.00 77 1009.7
20260505152744 53 18 11.0 16.0 0.00 0.01 0.00 78 1009.8
20260505152250 53 21 13.0 16.0 0.00 0.01 0.00 77 1009.7
20260505151743 53 7 14.0 16.0 0.00 0.01 0.00 78 1009.9
20260505151247 53 30 10.0 17.0 0.00 0.01 0.00 79 1009.9
20260505150742 53 23 10.0 17.0 0.00 0.01 0.00 79 1009.9
20260505140246 53 27 11.0 14.0 0.00 0.01 0.00 80 1010.3
20260505124739 52 18 10.0 14.0 0.00 0.01 0.00 79 1010.7
20260505124241 52 35 10.0 13.0 0.00 0.01 0.00 81 1010.8
20260505123739 52 27 10.0 12.0 0.00 0.01 0.00 80 1010.9
20260505123242 52 28 9.0 12.0 0.00 0.01 0.00 80 1011.0
20260505122255 51 35 10.0 13.0 0.00 0.01 0.00 80 1011.0
20260505121738 51 54 10.0 13.0 0.00 0.06 0.00 80 1010.9
20260505121241 52 48 9.0 13.0 0.00 0.09 0.00 80 1010.9
20260505120738 52 35 8.0 13.0 0.00 0.12 0.00 80 1010.9
20260505115336 52 30 9.0 13.0 0.00 0.12 0.00 80 1010.9
20260505114732 52 27 8.0 13.0 0.00 0.12 0.00 81 1010.9
20260505114232 52 27 8.0 13.0 0.00 0.12 0.00 80 1010.9
20260505113732 52 28 10.0 13.0 0.00 0.12 0.00 80 1010.9
20260505113233 51 30 8.0 13.0 0.00 0.12 0.00 81 1011.0
20260505112731 51 27 10.0 13.0 0.00 0.12 0.00 80 1010.9
20260505111732 51 44 9.0 12.0 0.00 0.12 0.00 80 1011.0
20260505111232 51 27 8.0 13.0 0.00 0.12 0.00 80 1011.1
20260505110734 51 56 8.0 13.0 0.00 0.12 0.00 79 1011.2
20260505110231 52 34 9.0 13.0 0.00 0.12 0.00 79 1011.2